Location: Unspecified
(0.0000°N, 0.0000°E)
Time: 16:54:29
(UTC+01:00)

NATO 3D Rocket - Visible Passes

Search period start: 30 October 2014 00:00
Search period end: 09 November 2014 00:00
Orbit: 670 x 2297 km, 21.5° (Epoch: 30 October)

Date Brightness Start Highest point End Pass type
(mag) Time Alt. Az. Time Alt. Az. Time Alt. Az.
30 Oct 6.9 19:04:33 10° SW 19:16:20 31° S 19:27:03 10° ESE visible
30 Oct 5.8 21:11:20 10° SW 21:24:02 46° SSE 21:24:51 45° SSE visible
30 Oct 7.2 23:18:10 10° WSW 23:20:24 17° WSW 23:20:24 17° WSW visible
31 Oct 6.2 20:12:23 10° SW 20:25:12 41° SSE 20:31:20 26° ESE visible
31 Oct 6.2 22:19:00 10° WSW 22:26:53 41° SW 22:26:53 41° SW visible
01 Nov 6.6 19:13:36 10° SW 19:26:06 37° SSE 19:37:28 10° ESE visible
01 Nov 5.6 21:19:56 10° WSW 21:33:22 61° SSE 21:33:22 61° SSE visible
01 Nov 7.3 23:27:10 10° WSW 23:28:54 15° WSW 23:28:54 15° WSW visible
02 Nov 5.9 20:21:03 10° SW 20:34:40 52° SSE 20:39:51 36° ESE visible
02 Nov 6.3 22:27:48 10° WSW 22:35:23 40° WSW 22:35:23 40° WSW visible
03 Nov 6.4 19:22:26 10° SW 19:35:38 45° SSE 19:46:20 14° E visible
03 Nov 5.4 21:28:38 10° WSW 21:41:53 77° SSW 21:41:53 77° SSW visible
03 Nov 7.4 23:36:31 10° W 23:37:25 13° W 23:37:25 13° W visible
04 Nov 5.7 20:29:45 10° WSW 20:43:54 67° SSE 20:48:22 46° E visible
04 Nov 6.5 22:36:54 10° WSW 22:43:55 35° W 22:43:55 35° W visible
05 Nov 6.1 19:31:12 10° SW 19:44:54 57° SSE 19:54:52 20° E visible
05 Nov 5.5 21:37:33 10° WSW 21:50:24 74° WNW 21:50:24 74° WNW visible
06 Nov 5.6 06:10:46 10° NNW 06:13:00 13° NNE 06:15:08 10° NE visible
06 Nov 5.5 20:38:35 10° WSW 20:52:56 86° SSE 20:56:54 55° ENE visible
06 Nov 6.8 22:46:20 10° W 22:52:27 29° W 22:52:27 29° W visible
07 Nov 5.7 05:14:36 11° N 05:15:43 11° N 05:17:12 10° NNE visible
07 Nov 5.9 19:40:02 10° WSW 19:53:58 73° SSE 20:03:24 25° ENE visible
07 Nov 5.8 21:46:46 10° WSW 21:58:56 59° NW 21:58:56 59° NW visible
08 Nov 6.1 18:41:56 10° SW 18:54:57 62° SSE 19:08:40 10° E visible
08 Nov 5.6 20:47:39 10° WSW 21:01:53 76° NNW 21:05:26 57° NE visible
08 Nov 7.0 22:56:09 10° W 23:00:58 23° WNW 23:00:58 23° WNW visible
